Wind_Speed
11 11 11 10 9 9 9 9 8 7 6 6 5 5 4 4 5 6 8 9 11 12 14 15 17 18 18 19 20 21 21 21 21 22 22 22 22 21 21 21 21 20 19 17
11 11 11 10 9 10 10 9 8 8 7 6 6 6 5 5 5 7 8 10 11 13 14 15 17 17 18 19 20 20 21 21 21 21 21 21 21 21 21 21 21 20 20 18
12 12 12 10 10 11 10 10 9 8 8 7 6 6 6 6 7 8 9 11 12 13 14 15 17 18 18 19 19 20 20 21 21 21 21 21 21 21 21 21 20 20 20 19
12 13 13 10 12 12 11 10 10 9 9 8 7 7 7 8 8 9 10 12 13 14 15 16 17 18 18 19 19 20 20 21 21 21 21 21 21 20 20 20 20 19 19 18
13 13 12 12 12 12 12 11 11 11 10 9 9 9 9 10 10 11 12 13 14 15 16 17 17 18 19 19 20 20 20 21 21 21 21 21 21 20 20 20 20 19 18 18
14 14 12 12 13 14 13 12 12 12 11 11 11 11 11 11 12 13 14 15 15 16 16 17 18 18 19 20 20 20 20 21 21 20 20 21 21 21 20 20 19 19 18 18
16 16 13 13 15 15 14 13 13 13 13 12 12 13 13 13 14 14 15 16 16 16 17 18 18 19 20 21 21 21 21 21 21 21 21 21 21 21 21 20 19 19 18 18
18 18 15 16 16 16 16 16 15 15 15 15 15 15 15 16 16 16 17 17 17 17 18 19 19 20 21 21 22 22 22 22 22 22 22 22 21 21 21 20 20 20 19 18
21 19 18 19 19 18 18 18 17 17 17 17 17 17 17 18 18 18 18 18 18 19 19 20 21 21 22 23 23 23 23 23 23 23 23 22 22 21 21 21 20 20 19 19
23 22 21 21 21 21 21 21 20 20 20 19 19 19 19 20 20 20 20 19 20 20 21 21 22 22 23 24 24 24 24 24 24 24 23 23 22 22 22 21 21 20 20 19
27 25 25 24 24 24 24 23 23 23 22 22 21 21 21 21 21 22 21 21 22 22 23 23 23 24 25 25 25 25 26 26 25 25 24 24 23 23 23 23 22 21 21 20
29 28 29 27 27 27 27 26 25 25 25 24 24 24 24 24 24 23 23 24 24 24 24 25 25 26 26 26 26 27 27 27 26 26 25 25 24 24 24 24 23 23 22 21
33 32 32 31 30 30 30 29 28 28 27 27 27 27 26 26 26 26 26 26 26 26 26 27 27 27 28 28 28 28 28 28 27 27 26 26 25 25 25 25 25 24 24 23
36 36 36 35 34 33 33 33 32 31 31 30 30 29 29 29 29 29 28 28 28 28 28 29 29 29 29 30 30 30 30 29 29 28 28 27 27 26 26 26 26 27 26 26
39 40 39 38 37 37 36 36 35 34 34 33 33 32 32 32 32 32 31 31 31 31 31 31 31 31 31 32 32 31 31 31 30 30 29 29 29 29 29 28 28 28 28 29
42 42 42 41 40 39 39 38 38 37 36 36 35 35 35 34 34 34 33 33 33 33 33 33 33 33 33 33 33 33 33 33 32 32 31 31 31 31 31 31 31 30 30 30
43 43 43 42 42 42 41 40 40 39 39 38 38 37 37 36 36 36 36 36 36 35 35 35 35 35 35 35 35 35 35 35 34 34 33 33 33 33 34 34 34 33 33 32
44 44 44 43 43 43 43 42 41 41 41 40 40 39 39 38 38 38 38 38 38 38 38 38 38 38 38 37 37 37 37 37 36 36 35 35 36 36 36 36 35 35 35 35
46 45 44 44 44 45 44 43 43 43 42 42 42 41 41 41 40 40 40 40 40 40 40 40 40 40 39 39 39 39 39 38 38 38 37 37 37 37 37 37 37 37 37 37
46 46 46 45 45 46 46 45 44 44 44 44 43 43 43 43 43 42 42 42 42 42 42 42 42 42 41 41 40 40 40 40 39 39 38 38 38 38 38 39 38 39 39 39
46 46 46 46 46 46 47 47 46 46 46 46 46 45 45 45 45 44 44 44 44 44 44 43 43 43 42 42 41 41 41 41 40 40 40 39 40 40 40 40 40 41 41 41
46 46 46 46 47 47 47 47 48 48 48 48 48 48 47 47 47 47 47 46 46 46 45 45 44 44 43 43 42 42 42 42 41 41 41 41 41 41 42 42 43 43 43 44
45 45 46 46 46 47 47 47 47 48 48 48 48 48 48 48 48 48 48 48 48 47 46 46 45 44 44 43 43 43 43 43 42 42 42 42 43 43 43 44 44 44 45 46
44 44 45 45 45 46 47 47 47 47 47 48 48 48 49 49 49 49 48 48 48 47 47 46 45 45 44 44 44 44 44 43 43 43 43 44 44 44 44 45 45 45 46 48
43 43 43 44 45 45 45 46 47 47 47 47 47 48 47 47 48 48 48 48 48 47 47 46 46 46 46 45 45 45 45 44 44 44 44 45 45 45 45 46 46 47 48 49
43 43 43 44 44 44 45 45 46 46 46 46 46 46 46 46 46 46 47 47 47 46 46 46 46 46 46 46 46 45 45 44 44 44 44 45 45 45 46 47 47 48 49 50
42 42 41 42 42 43 44 44 44 45 45 45 44 44 44 44 45 45 45 44 44 44 44 44 45 45 44 44 44 44 44 43 43 43 44 44 45 45 46 46 47 48 49 50
Wind_Direction
242 242 241 236 234 234 236 235 232 224 220 221 228 239 258 281 302 317 327 334 337 339 342 343 345 347 349 351 353 354 355 358 360 2 3 5 6 7 9 10 11 11 11 11
242 245 243 236 234 236 237 235 230 223 219 227 234 245 258 276 294 310 320 326 330 333 336 339 342 343 345 347 349 350 352 354 356 358 0 2 3 4 6 8 9 10 11 11
242 245 245 239 238 235 234 234 231 227 229 234 238 245 259 275 291 303 313 319 323 327 330 333 337 339 341 343 345 347 350 352 353 355 357 359 360 1 3 3 5 7 9 10
242 244 246 237 237 236 233 233 234 235 238 242 246 255 265 276 287 296 305 312 317 321 325 328 331 334 336 339 341 344 347 349 351 353 355 356 357 358 359 360 0 2 4 6
241 241 239 236 239 239 237 235 238 240 242 246 253 261 267 276 285 292 300 307 312 316 320 324 327 329 332 334 337 339 341 344 346 348 351 352 353 354 354 355 356 357 359 1
246 245 237 235 240 241 241 240 242 245 249 253 256 262 269 276 283 290 297 303 308 313 316 320 323 325 328 331 333 335 337 339 341 342 344 346 348 350 350 351 351 352 353 355
251 250 245 241 243 244 246 243 244 248 252 255 260 264 269 275 281 288 294 299 304 309 312 316 319 322 324 326 328 330 332 333 335 336 338 339 341 343 345 347 347 348 348 348
253 254 252 248 247 248 248 246 248 250 254 257 261 265 270 274 280 286 291 296 301 305 309 312 314 317 319 322 324 325 327 328 329 330 332 334 335 337 338 340 341 343 343 342
255 256 255 254 254 252 251 250 252 254 257 259 263 266 270 275 280 284 288 292 297 301 305 307 310 312 315 318 320 321 322 323 325 326 327 328 329 330 332 333 334 335 336 336
256 256 255 255 255 255 255 254 255 257 258 261 264 267 271 275 278 282 285 289 293 297 301 303 306 308 311 313 315 317 318 319 320 321 322 323 324 324 325 325 326 327 328 329
258 258 257 256 257 257 258 258 259 260 261 263 265 267 270 273 277 280 283 286 290 293 297 299 301 304 306 309 311 313 314 315 317 317 317 318 318 319 319 319 319 320 321 322
258 257 257 257 258 259 260 261 261 262 263 264 266 268 270 272 274 277 280 283 286 290 293 296 298 300 302 304 306 309 310 311 312 312 313 313 313 314 315 315 315 315 315 316
257 256 256 256 257 258 260 260 261 262 263 265 266 268 269 271 273 275 277 280 283 286 289 292 294 296 299 301 303 305 307 307 307 308 309 309 310 311 311 312 312 312 311 311
256 256 256 257 257 257 257 259 260 261 262 264 265 267 268 270 272 273 275 277 280 283 286 289 291 293 296 298 300 302 304 304 304 304 305 305 306 307 308 308 308 308 307 307
254 255 256 257 257 256 257 258 259 260 261 263 264 266 267 269 271 272 274 275 278 281 284 286 289 291 293 295 297 298 300 301 301 301 302 302 302 303 304 304 304 303 303 303
253 254 255 256 257 257 257 257 258 259 260 262 263 265 267 268 269 270 272 274 277 279 282 284 287 289 291 292 294 296 297 297 298 298 299 299 299 301 301 301 302 301 300 299
254 253 254 256 256 256 256 257 258 259 259 261 262 263 265 267 268 269 271 273 275 278 280 283 285 287 289 290 292 294 294 295 295 296 296 296 297 298 299 299 298 298 298 296
255 255 254 254 255 256 256 256 257 258 259 260 261 262 264 265 266 267 269 271 274 276 279 281 283 285 287 288 290 291 292 292 293 293 294 294 295 296 296 297 296 296 296 295
255 255 255 254 254 255 255 256 256 257 258 259 260 261 263 264 266 267 269 270 272 274 276 279 281 284 285 287 288 289 290 290 291 291 292 293 293 294 295 295 295 295 295 294
255 255 255 254 254 254 255 255 256 256 257 259 260 261 262 264 265 267 268 269 271 273 275 278 280 282 284 285 286 288 289 289 290 290 291 291 292 293 294 294 294 294 294 294
256 255 255 255 254 254 254 254 255 255 256 258 259 260 261 263 265 266 268 269 271 273 274 276 278 280 282 283 285 286 287 288 288 289 289 290 291 292 293 293 293 293 293 293
255 255 254 254 254 254 255 255 255 255 256 257 259 260 261 262 264 265 267 268 270 272 273 275 277 279 281 282 283 285 286 287 287 287 288 288 289 291 292 292 292 292 292 293
255 255 255 254 254 254 255 255 255 256 256 257 258 259 260 261 263 265 266 268 269 271 272 274 276 277 279 280 282 284 285 286 286 286 287 287 289 290 291 291 292 292 293 293
254 254 254 253 253 254 254 254 254 255 256 257 258 259 260 261 262 264 265 267 268 269 271 272 274 276 278 279 281 283 284 284 285 285 286 287 288 289 290 291 292 293 293 294
254 254 254 253 253 253 254 254 254 254 256 257 258 258 259 260 261 262 264 265 267 268 269 271 273 275 276 278 280 282 282 283 284 284 285 287 287 288 289 291 292 293 294 294
255 255 254 254 254 254 254 254 255 255 256 257 257 258 258 259 261 262 263 264 266 268 269 271 272 274 276 278 280 281 282 282 283 284 285 286 287 288 289 291 292 293 294 296
257 256 255 255 255 255 254 254 255 255 255 255 255 257 258 259 260 261 261 263 264 266 269 270 272 275 277 278 279 280 280 281 282 284 285 286 287 289 291 292 294 295 296 297
Height
5840 5841 5841 5842 5842 5843 5843 5844 5845 5846 5846 5847 5847 5847 5847 5847 5846 5845 5844 5842 5840 5837 5834 5831 5827 5824 5820 5816 5812 5808 5803 5799 5794 5790 5785 5780 5776 5771 5766 5762 5757 5753 5749 5745
5838 5838 5838 5839 5840 5841 5841 5842 5842 5843 5845 5845 5845 5845 5845 5845 5844 5843 5842 5840 5838 5835 5833 5830 5826 5823 5819 5815 5811 5807 5803 5799 5794 5790 5785 5781 5776 5772 5768 5763 5759 5755 5750 5746
5836 5835 5836 5837 5838 5838 5839 5839 5840 5841 5843 5842 5843 5843 5843 5842 5842 5841 5840 5838 5836 5834 5831 5828 5825 5821 5818 5814 5810 5806 5802 5798 5794 5790 5785 5781 5777 5773 5768 5764 5760 5756 5752 5748
5833 5834 5834 5838 5835 5836 5836 5837 5838 5839 5839 5840 5840 5840 5840 5840 5839 5838 5837 5836 5834 5831 5829 5826 5823 5819 5816 5813 5809 5805 5801 5798 5794 5790 5785 5781 5777 5773 5769 5765 5761 5757 5753 5749
5830 5830 5831 5834 5833 5833 5834 5835 5835 5836 5836 5837 5837 5837 5837 5837 5836 5835 5834 5833 5831 5828 5826 5823 5820 5817 5814 5811 5807 5804 5800 5796 5793 5789 5785 5781 5777 5773 5769 5765 5761 5757 5753 5750
5827 5827 5828 5831 5830 5830 5832 5832 5832 5832 5833 5834 5834 5834 5834 5833 5833 5832 5830 5829 5827 5825 5823 5820 5817 5814 5811 5808 5805 5801 5798 5795 5791 5787 5784 5780 5776 5772 5768 5764 5761 5757 5753 5750
5823 5823 5825 5827 5826 5827 5829 5830 5829 5829 5829 5830 5830 5831 5830 5829 5829 5828 5827 5825 5823 5821 5819 5816 5814 5811 5808 5805 5802 5799 5796 5792 5789 5785 5782 5778 5775 5771 5767 5763 5760 5756 5753 5750
5818 5819 5823 5821 5822 5823 5824 5824 5824 5824 5825 5825 5826 5825 5825 5825 5824 5823 5822 5821 5819 5817 5815 5813 5810 5807 5804 5802 5799 5796 5792 5789 5786 5783 5779 5776 5772 5769 5765 5762 5759 5755 5752 5749
5814 5817 5816 5816 5816 5817 5818 5819 5819 5820 5820 5820 5821 5820 5820 5820 5819 5818 5817 5816 5814 5812 5810 5808 5806 5803 5800 5797 5794 5792 5789 5785 5782 5779 5776 5773 5769 5766 5763 5760 5757 5754 5750 5747
5808 5809 5810 5810 5810 5811 5811 5812 5813 5814 5814 5815 5815 5815 5814 5814 5813 5812 5811 5810 5809 5807 5805 5803 5801 5798 5796 5793 5790 5787 5784 5781 5778 5775 5772 5769 5766 5763 5760 5757 5754 5751 5748 5746
5800 5802 5802 5803 5803 5804 5805 5805 5806 5807 5807 5808 5808 5808 5808 5807 5807 5806 5805 5804 5803 5801 5799 5797 5795 5793 5791 5788 5785 5782 5779 5776 5773 5770 5767 5764 5761 5759 5756 5753 5750 5748 5745 5743
5792 5793 5793 5795 5795 5796 5797 5798 5798 5799 5800 5800 5800 5800 5800 5800 5800 5799 5798 5797 5796 5795 5793 5791 5789 5787 5785 5782 5780 5777 5774 5771 5768 5765 5762 5760 5757 5754 5751 5748 5746 5743 5741 5738
5782 5783 5783 5785 5786 5787 5788 5789 5790 5790 5791 5792 5792 5792 5792 5792 5792 5792 5791 5790 5789 5787 5786 5784 5782 5780 5778 5776 5773 5771 5768 5765 5762 5760 5757 5754 5751 5749 5746 5743 5740 5738 5735 5733
5771 5771 5772 5775 5776 5777 5778 5779 5780 5781 5782 5782 5783 5783 5783 5783 5783 5783 5783 5782 5781 5780 5778 5777 5775 5773 5771 5768 5766 5763 5761 5758 5755 5753 5750 5748 5745 5743 5740 5737 5734 5731 5729 5726
5759 5760 5761 5763 5765 5766 5767 5768 5770 5771 5772 5773 5773 5773 5773 5773 5773 5773 5773 5772 5772 5771 5769 5768 5766 5765 5762 5760 5758 5755 5753 5750 5748 5745 5743 5740 5738 5735 5733 5730 5728 5725 5722 5719
5747 5748 5749 5750 5752 5754 5755 5757 5758 5760 5761 5762 5762 5763 5763 5763 5763 5763 5763 5762 5762 5761 5760 5759 5757 5755 5753 5751 5749 5747 5744 5742 5740 5737 5735 5732 5730 5727 5725 5722 5720 5717 5715 5712
5733 5735 5737 5738 5740 5741 5742 5744 5746 5747 5749 5750 5750 5751 5751 5752 5752 5752 5752 5752 5751 5750 5750 5748 5747 5745 5743 5741 5740 5737 5735 5733 5730 5728 5726 5723 5721 5718 5716 5713 5711 5708 5706 5703
5718 5720 5722 5724 5726 5727 5729 5731 5733 5735 5736 5737 5738 5739 5739 5740 5740 5740 5740 5740 5740 5739 5739 5737 5736 5735 5733 5731 5729 5727 5725 5723 5720 5718 5716 5713 5711 5708 5706 5703 5701 5698 5696 5693
5703 5705 5708 5710 5712 5713 5715 5717 5719 5721 5722 5724 5725 5726 5727 5727 5728 5728 5728 5728 5728 5727 5727 5726 5725 5723 5722 5720 5718 5716 5714 5712 5710 5707 5705 5703 5700 5698 5695 5692 5690 5687 5685 5682
5687 5690 5692 5695 5697 5699 5701 5703 5705 5707 5708 5710 5711 5712 5713 5714 5715 5715 5715 5715 5715 5715 5714 5713 5712 5711 5710 5708 5706 5704 5702 5700 5698 5696 5693 5691 5689 5686 5684 5681 5678 5676 5673 5670
5672 5674 5676 5679 5681 5683 5685 5688 5690 5692 5693 5695 5696 5698 5699 5700 5700 5701 5701 5702 5702 5701 5701 5700 5699 5698 5697 5696 5694 5692 5690 5688 5686 5684 5681 5679 5677 5674 5671 5669 5666 5663 5660 5658
5655 5658 5660 5663 5665 5667 5669 5671 5673 5675 5677 5679 5681 5682 5684 5685 5686 5686 5687 5687 5687 5687 5687 5686 5686 5685 5684 5682 5681 5679 5677 5675 5673 5671 5669 5667 5664 5662 5659 5656 5653 5650 5647 5644
5639 5641 5644 5647 5649 5651 5653 5655 5657 5659 5661 5663 5665 5667 5668 5669 5670 5671 5672 5672 5672 5672 5672 5672 5671 5671 5670 5669 5667 5666 5664 5662 5660 5658 5656 5654 5651 5649 5646 5642 5639 5636 5633 5630
5623 5625 5628 5630 5633 5635 5637 5639 5641 5643 5645 5647 5649 5650 5652 5653 5654 5655 5656 5656 5657 5657 5657 5657 5657 5656 5656 5655 5653 5652 5650 5648 5646 5644 5642 5640 5637 5635 5632 5628 5625 5622 5618 5614
5607 5609 5612 5614 5616 5619 5621 5623 5625 5627 5629 5631 5633 5634 5636 5637 5638 5639 5640 5641 5641 5642 5642 5642 5642 5642 5641 5640 5639 5638 5636 5634 5632 5630 5628 5626 5623 5620 5617 5614 5611 5607 5603 5599
5592 5594 5596 5598 5601 5603 5605 5607 5609 5611 5613 5615 5617 5618 5620 5621 5623 5624 5625 5626 5627 5627 5627 5627 5627 5627 5626 5625 5624 5623 5621 5620 5618 5616 5614 5611 5609 5606 5603 5599 5596 5592 5588 5583
5577 5579 5581 5583 5585 5587 5589 5592 5594 5596 5598 5600 5601 5603 5605 5606 5607 5609 5610 5611 5612 5612 5613 5613 5613 5612 5612 5611 5610 5608 5607 5605 5604 5602 5599 5597 5594 5591 5588 5585 5581 5577 5572 5568